Location: LDNL
(36.4545°S, 141.6685°E)
Time: 13:41:52
(UTC+11:00)

Courier 1B Rocket - Pass Details

Date: 06 February 2023
Orbit: 920 x 1202 km, 28.2° (Epoch: 25 March)

Event Time Altitude Azimuth Distance (km) Brightness Sun altitude
Rises 06:55:54 0° 284° (WNW) 4,052 - -0.6°
Exits shadow 06:56:04 - 285° (WNW) 3,997 7.5 -0.6°
Reaches altitude 10° 06:58:49 10° 290° (WNW) 3,113 7.0 0.0°
Maximum altitude 07:06:12 47° 0° (N) 1,554 6.0 1.4°
Drops below altitude 10° 07:13:37 10° 71° (ENE) 3,122 8.6 2.8°
Sets 07:16:32 0° 76° (ENE) 4,065 9.4 3.3°
